User: anonymous   Login
Location: Unspecified
(0.0000°N, 0.0000°E)
Time: 17:02:24
(UTC+00:00)
Language:

Kosmos-2172 - Orbit

View from above orbital plane
View from above orbital plane
View from above satellite
View from above satellite

Ground track
Ground track

The orbit data is extracted from the following two-line orbital elements,

1 21796U 91081A   18174.94318990 +.00000054 +00000-0 +40311-4 0  9990
2 21796 082.9543 168.5252 0048646 203.3479 184.4059 13.75482501333616
Epoch (UTC): 23 June 2018 22:38:11
Eccentricity: 0.0048646
inclination: 82.9543°
perigee height: 944 km
apogee height: 1016 km
right ascension of ascending node: 168.5252°
argument of perigee: 203.3479°
revolutions per day: 13.75482501
mean anomaly at epoch: 184.4059°
orbit number at epoch: 33361

The dashed part of the orbit path shows where the satellite is in the earth's shadow,  

DLR